Regional Weather Roundup
Issued by NWS

Home | Current Version | Previous Version | Text Only | Print | Product List | Glossary Off
Versions: 1 2 3 4 5 6 7 8 9 10 11 12 13 14 15 16 17 18 19 20 21 22 23 24 25 26 27 28 29 30 31 32 33 34 35 36 37 38 39 40 41 42 43 44 45 46 47 48 49 50

000
ASUS45 KBOU 270707
RWRCO

WEATHER ROUNDUP FOR COLORADO
NATIONAL WEATHER SERVICE DENVER/BOULDER CO
100 AM MDT WED MAY 27 2015

NOTE: "FAIR" INDICATES FEW OR NO CLOUDS BELOW 12000 FEET WITH NO
SIGNIFICANT WEATHER AND/OR OBSTRUCTIONS TO VISIBILITY.

COZ001>005-013-030-031-270800-
...NORTHWEST COLORADO...

CITY           SKY/WX    TMP DP  RH WIND       PRES   REMARKS
CRAIG          CLOUDY    50  41  71 SW13      30.14S
HAYDEN         CLOUDY    46  43  87 CALM      30.16R
MEEKER         CLOUDY    48  43  82 NW5       30.16F
MOUNT WERNER   NOT AVBL
STEAMBOAT SPGS CLOUDY    45  44  95 S3        30.17R
WALDEN         CLOUDY    43  36  75 S7        30.19S
$$

COZ006>008-011-270800-
...WEST CENTRAL VALLEYS...

CITY           SKY/WX    TMP DP  RH WIND       PRES   REMARKS
GRAND JUNCTION PTCLDY    50  48  93 SE6       30.09F
MONTROSE       MOCLDY    47  46  97 S5        30.16S
EAGLE          MOCLDY    46  45  93 E3        30.19S
RIFLE          MOCLDY    50  47  89 E3        30.14S
DELTA          CLEAR     50  46  84 MISG      30.14R
NUCLA          PTCLDY    48  46  93 CALM      30.18S
$$

COZ017>023-064>068-270800-
...SOUTHWEST COLORADO...

CITY           SKY/WX    TMP DP  RH WIND       PRES   REMARKS
DURANGO        MOCLDY    47  40  76 N3        30.17S
CORTEZ         CLEAR     45  42  89 NE8       30.13S
PAGOSA SPRINGS PTCLDY    45  41  88 CALM      30.24S THUNDER
TELLURIDE      CLOUDY    43  35  74 SE6       30.30S
WOLF CREEK PAS NOT AVBL
$$

COZ009-010-012-014-032>034-037-058>063-270800-
...CENTRAL COLORADO...

CITY           SKY/WX    TMP DP  RH WIND       PRES   REMARKS
ASPEN          NOT AVBL
BUENA VISTA    PTCLDY    46  35  64 CALM      30.21S
COPPER MTN     CLOUDY    37  30  75 SW12      30.36F
BERTHOUD PASS  MOCLDY    28  21  74 W25       30.37F WCI  14
COTTONWOOD PAS PTCLDY    45  32  61 W6        30.28F
GUNNISON       CLEAR     43  34  70 N3        30.25F
KREMMLING      PTCLDY    43  36  75 CALM      30.19F
LEADVILLE      CLOUDY    35  30  82 NE5       30.27S WCI  31
SALIDA         PTCLDY    50  37  59 SW12      30.26F
SUNLIGHT       CLOUDY    36  36 100 CALM      30.35S FOG
WILKERSON PASS PTCLDY    34  30  86 SW12G22   30.35S WCI  25
$$

COZ069>075-270800-
...SAN LUIS VALLEY/SANGRE DE CRISTO MOUNTAINS...

CITY           SKY/WX    TMP DP  RH WIND       PRES   REMARKS
ALAMOSA        PTCLDY    42  37  82 CALM      30.21F
LA VETA PASS   CLEAR    N/A N/A N/A MISG      30.32S
SAGUACHE       CLEAR     41  37  87 NE10      30.23F
$$

COZ035-036-038>040-270800-
...NORTHERN COLORADO FRONT RANGE...

CITY           SKY/WX    TMP DP  RH WIND       PRES   REMARKS
DENVER INTL AP MOCLDY    51  46  83 S9        30.07S
DMNS CITY PARK   N/A     53  45  74 S3        30.06S
AURORA         MOCLDY    53  44  73 SW12      30.08S
FRONT RANGE AP CLOUDY    54  48  82 S7        30.08S
ERIE MUNI ARPT MOCLDY    50  46  85 CALM      30.06S
BOULDER MUN AP CLOUDY    52  45  76 SE5       30.06R
CENTENNIAL     MOCLDY    51  45  79 S8        30.09S
BROOMFIELD     MOCLDY    50  43  76 W7        30.08S
FORT COLLINS   PTCLDY    52  48  87 N5        30.06F
LONGMONT       MOCLDY    53  46  76 E6        30.07R
$$

COZ041-046-047-076>085-087-088-270800-
...PIKES PEAK/PALMER DIVIDE AND SOUTHERN FOOTHILLS...

CITY           SKY/WX    TMP DP  RH WIND       PRES   REMARKS
COLO. SPRINGS  CLOUDY    50  47  89 SE3       30.14F
A. F. ACADEMY  MOCLDY    45  45  99 NW2       30.15R
ELLICOTT       CLOUDY   N/A N/A N/A E8        30.13S
FALCON         CLOUDY    47  45  91 CALM      30.16F
FORT CARSON    NOT AVBL
LIMON          LGT RAIN  52  48  86 SE8       30.10F
MONUMENT HILL    N/A     45  41  87 E6        30.16S
TRINIDAD       PTCLDY    51  46  83 NW7       30.12S
$$

COZ042>045-048>051-090-091-270800-
...NORTHEAST COLORADO...

CITY           SKY/WX    TMP DP  RH WIND       PRES   REMARKS
GREELEY ARPT   PTCLDY    52  48  87 SE5       30.05S
AKRON          MOCLDY    54  50  86 S10       30.07S
BURLINGTON     MOCLDY    54  50  86 SE8       30.08S
WRAY           PTCLDY    56  51  83 SE7       30.07R
STERLING       MOCLDY    54  50  87 SW7       30.04S
HOLYOKE        CLEAR     55  50  82 SE9       30.06S
FORT MORGAN    PTCLDY    53  49  87 SE3       30.06S
$$

COZ086-089-092>099-270800-
...SOUTHEAST COLORADO...

CITY           SKY/WX    TMP DP  RH WIND       PRES   REMARKS
PUEBLO         MOCLDY    55  50  83 NW5       30.08R
LA JUNTA       CLOUDY    59  53  80 NE10      30.06F
LAMAR          CLOUDY    58  52  80 SE8       30.04F
SPRINGFIELD      N/A     62  44  51 W16G29    30.07F
$$


USA.gov is the U.S. government's official web portal to all federal, state and local government web resources and services.